www.pogodaiklimat.ru

Погода и климат >> Архив погоды >> Швейцария >> Zurich


АРХИВ ПОГОДЫ в Zurich

Время (UTC), дата Ветер
(напр.,м/с)
 
Видим.   Явления Облачность Т
(С)
Тd
(С)
f
(%)
Тe
(С)
Тes
(С)
Комфортность P
(гПа)
Po
(гПа)
Тmin
(С)
Tmax
(С)
R
(мм)
R24
(мм)
S
(см)
19 10.10 СЗ 1
{2}
н/о н/о +11.1 +8.7 85 +12 +12 тепло 1022.9 957.3
20 10.10 штиль 0
{1}
н/о н/о +10.6 +8.6 87 +10 +10 по сезону 1023.0 957.3
21 10.10 штиль 0
{2}
н/о н/о +10.2 +8.4 89 +9 +9 по сезону 1023.4 957.5
22 10.10 Ю 2
{3}
н/о н/о +10.4 +8.5 88 +9 +9 по сезону 1023.3 957.5
23 10.10 ЮВ 2
{3}
н/о н/о +10.3 +8.0 86 +9 +9 по сезону 1023.0 957.2
00 11.10 Ю 2
{3}
н/о н/о +9.9 +7.5 85 +9 +9 по сезону 1023.2 957.3
01 11.10 Ю 2
{3}
н/о н/о +9.6 +7.3 86 +8 +8 по сезону 1022.9 956.9
02 11.10 штиль 0
{2}
н/о н/о +8.8 +7.5 92 +8 +8 по сезону 1023.2 957.0
03 11.10 В 1
{3}
н/о н/о +8.0 +7.0 93 +8 +8 по сезону 1023.4 957.0
04 11.10 Ю 1
{2}
н/о н/о +8.9 +7.4 90 +8 +8 по сезону 1023.2 957.1
05 11.10 Ю 1
{2}
н/о н/о +8.4 +7.1 92 +8 +8 по сезону 1023.2 956.9
06 11.10 ЮВ 1 н/о 4/0
[]
+8.5 +7.3 92 +9 +9 по сезону 1023.3 957.1 +8.0
07 11.10 ЮВ 1
{2}
н/о н/о +9.1 +7.7 91 +9 +9 по сезону 1023.4 957.3
08 11.10 Ю 1
{2}
н/о н/о +10.4 +8.1 86 +10 +10 по сезону 1023.4 957.6
09 11.10 Ю 1
{3}
н/о н/о +12.5 +8.5 77 +13 +13 тепло 1022.9 957.6
10 11.10 Ю 1
{3}
н/о н/о +14.3 +8.4 68 +15 +15 тепло 1022.2 957.4
11 11.10 ЮЗ 2
{4}
н/о н/о +15.2 +8.1 63 +15 +15 тепло 1021.6 957.0
12 11.10 ЮЗ 2
{5}
н/о 1/0
[]
+16.6 +8.5 59 +17 +24 тепло 1020.6 956.4
13 11.10 ЮЗ 3
{6}
н/о н/о +17.9 +9.1 56 +18 +18 тепло 1019.9 956.0
14 11.10 ЮЗ 3
{6}
н/о н/о +17.7 +8.7 56 +18 +18 тепло 1019.5 955.6
15 11.10 ЮЗ 2
{6}
н/о н/о +17.8 +8.5 54 +18 +18 тепло 1019.2 955.3
16 11.10 Ю 2
{4}
н/о н/о +16.4 +9.4 63 +17 +17 тепло 1019.5 955.3
17 11.10 ЮЗ 1
{3}
н/о н/о +14.2 +10.5 78 +15 +15 тепло 1020.2 955.5
18 11.10 Ю 1
{6}
н/о н/о +12.8 +10.0 83 +14 +14 тепло 1020.8 955.7 +18.5
19 11.10 Ю 1
{2}
н/о н/о +12.0 +9.2 83 +13 +13 тепло 1021.4 956.1
20 11.10 Ю 1
{2}
н/о н/о +12.3 +9.4 82 +13 +13 тепло 1021.8 956.5
21 11.10 Ю 2
{4}
н/о н/о +12.8 +8.5 75 +12 +12 тепло 1022.0 956.8
22 11.10 Ю 2
{5}
н/о н/о +12.6 +8.2 75 +12 +12 тепло 1022.2 957.0
23 11.10 ЮЗ 2
{5}
н/о н/о +13.1 +7.7 70 +12 +12 тепло 1022.2 957.1
00 12.10 Ю 2
{5}
н/о н/о +12.7 +7.3 70 +12 +12 тепло 1022.3 957.1
01 12.10 Ю 2
{5}
н/о н/о +12.7 +7.2 69 +12 +12 тепло 1022.3 957.1
02 12.10 Ю 3
{7}
н/о н/о +12.1 +7.2 72 +11 +11 тепло 1022.5 957.1
03 12.10 ЮЗ 3
{7}
н/о н/о +11.6 +7.3 75 +10 +10 по сезону 1022.7 957.2
04 12.10 ЮЗ 2
{6}
н/о н/о +11.7 +8.1 79 +11 +11 тепло 1023.3 957.8
05 12.10 Ю 2
{5}
н/о н/о +12.2 +7.8 74 +12 +12 тепло 1023.1 957.7
06 12.10 ЮЗ 2 н/о 1/0
[]
+12.3 +7.4 72 +12 +12 тепло 1023.8 958.4 +10.8
07 12.10 Ю 2
{5}
н/о н/о +12.7 +8.1 74 +12 +12 тепло 1024.4 959.1
08 12.10 ЮЗ 2
{5}
н/о н/о +14.2 +8.7 69 +14 +14 тепло 1025.1 960.1
09 12.10 З 3
{6}
н/о н/о +15.4 +9.2 67 +15 +15 тепло 1025.7 960.9
10 12.10 З 3
{7}
н/о н/о +15.8 +10.1 69 +16 +16 тепло 1026.4 961.6
11 12.10 ЮЗ 4
{7}
н/о н/о +17.3 +10.0 62 +17 +17 тепло 1025.8 961.4
12 12.10 З 4
{8}
н/о 6/0
[]
+18.3 +10.1 59 +19 +22 тепло 1025.3 961.2
13 12.10 З 2
{6}
н/о н/о +17.7 +10.1 61 +18 +18 тепло 1025.5 961.2
14 12.10 ЮЗ 1
{4}
н/о н/о +18.8 +10.4 58 +21 +21 комфорт 1025.1 961.1
15 12.10 СЗ 3
{6}
н/о н/о +18.1 +10.3 60 +18 +18 тепло 1025.3 961.1
16 12.10 СЗ 2
{6}
н/о н/о +17.0 +9.8 63 +17 +17 тепло 1026.0 961.5
17 12.10 С 1
{5}
н/о н/о +15.2 +9.9 71 +16 +16 тепло 1026.7 961.8
18 12.10 СЗ 1
{6}
н/о 1/0
[]
+13.4 +9.9 79 +14 +14 тепло 1027.4 962.0 +18.8
19 12.10 СЗ 1
{2}
н/о н/о +12.6 +9.9 84 +13 +13 тепло 1027.8 962.2
20 12.10 СЗ 1
{3}
н/о н/о +12.4 +10.0 85 +13 +13 тепло 1028.4 962.7
21 12.10 С 1
{3}
н/о н/о +12.8 +10.5 86 +14 +14 тепло 1028.6 963.0
22 12.10 Ю 1
{2}
н/о н/о +12.4 +10.5 88 +13 +13 тепло 1028.7 963.0
23 12.10 штиль 0
{1}
н/о н/о +11.9 +10.1 89 +11 +11 тепло 1028.6 962.8
00 13.10 СЗ 1
{3}
н/о н/о +10.7 +9.5 92 +11 +11 тепло 1028.9 962.8
01 13.10 штиль 0
{1}
н/о н/о +10.4 +9.3 93 +10 +10 тепло 1029.0 962.8
02 13.10 ЮВ 1
{2}
н/о н/о +10.2 +9.3 94 +11 +11 тепло 1028.9 962.7
03 13.10 ЮВ 1
{2}
н/о н/о +10.6 +9.6 94 +11 +11 тепло 1028.8 962.7
04 13.10 ЮВ 1
{1}
н/о н/о +10.0 +9.1 94 +10 +10 тепло 1029.1 962.8
05 13.10 ЮВ 1
{2}
н/о н/о +10.1 +9.1 94 +10 +10 тепло 1028.9 962.7
06 13.10 С 1 н/о н/о +9.6 +8.8 95 +10 +10 по сезону 1029.1 962.7 +10.0
07 13.10 ЮЗ 1
{1}
н/о н/о +9.8 +8.8 93 +10 +10 по сезону 1029.4 963.1
08 13.10 ЮЗ 1
{2}
н/о н/о +11.4 +9.9 90 +12 +12 тепло 1029.1 963.2
09 13.10 ЮВ 1
{2}
н/о н/о +13.9 +10.8 82 +15 +15 тепло 1028.6 963.3
10 13.10 В 2
{4}
н/о н/о +15.2 +10.7 74 +15 +15 тепло 1028.2 963.2
11 13.10 СЗ 1
{3}
н/о н/о +17.0 +10.3 65 +19 +19 тепло 1027.6 963.0
12 13.10 В 1
{4}
н/о ясно +18.1 +11.2 64 +19 +27 тепло 1026.9 962.6
13 13.10 СВ 2
{4}
н/о н/о +18.7 +10.5 59 +20 +20 тепло 1026.3 962.2 0.1
14 13.10 З 2
{4}
н/о н/о +18.9 +10.3 57 +20 +20 тепло 1025.9 961.9
15 13.10 СВ 2
{4}
н/о н/о +19.3 +10.8 58 +21 +21 комфорт 1025.6 961.7
16 13.10 СВ 1
{3}
н/о н/о +18.4 +10.7 61 +20 +20 тепло 1025.7 961.6
17 13.10 СВ 2
{2}
н/о н/о +15.1 +11.0 76 +15 +15 тепло 1026.9 961.9
18 13.10 СВ 2
{4}
н/о ясно +14.1 +10.9 81 +14 +14 тепло 1027.5 962.3 +19.5
19 13.10 СВ 2
{2}
н/о н/о +13.2 +10.6 84 +13 +13 тепло 1028.0 962.5
20 13.10 ЮВ 1
{2}
н/о н/о +12.8 +10.7 87 +14 +14 тепло 1028.1 962.5
21 13.10 ЮВ 1
{2}
н/о н/о +12.7 +10.7 88 +13 +13 тепло 1028.1 962.5
22 13.10 СВ 1
{2}
н/о н/о +12.0 +10.3 89 +12 +12 тепло 1028.4 962.6
23 13.10 ЮЗ 1
{2}
н/о н/о +11.5 +9.9 90 +12 +12 тепло 1028.5 962.6
00 14.10 СВ 2
{3}
н/о н/о +10.9 +9.6 92 +10 +10 по сезону 1029.0 962.9
01 14.10 В 1
{3}
н/о н/о +10.8 +9.6 92 +11 +11 тепло 1029.0 962.9
02 14.10 штиль 0
{1}
н/о н/о +10.5 +9.4 93 +10 +10 тепло 1028.8 962.7
03 14.10 С 1
{3}
н/о н/о +10.0 +9.0 93 +10 +10 по сезону 1029.0 962.7
04 14.10 штиль 0
{1}
н/о н/о +9.7 +8.8 94 +9 +9 тепло 1029.0 962.7
05 14.10 С 1
{2}
н/о н/о +9.9 +8.9 93 +10 +10 тепло 1029.3 963.0
06 14.10 В 1 н/о н/о +9.2 +8.6 96 +9 +9 по сезону 1029.5 963.0 +9.7
07 14.10 штиль 0
{1}
н/о н/о +9.9 +9.0 94 +9 +9 по сезону 1029.7 963.4
08 14.10 ЮВ 1
{3}
н/о н/о +11.2 +10.1 93 +11 +11 по сезону 1029.8 963.8
09 14.10 ЮЗ 1
{3}
н/о н/о +12.0 +10.5 91 +12 +12 тепло 1029.9 964.0
10 14.10 ЮЗ 1
{2}
н/о н/о +14.3 +11.3 82 +15 +15 тепло 1029.2 963.9
11 14.10 ЮЗ 1
{3}
н/о н/о +16.8 +11.2 70 +18 +18 тепло 1028.0 963.4
12 14.10 СЗ 1
{3}
н/о ясно +18.7 +11.5 63 +20 +28 тепло 1026.9 962.8
13 14.10 З 1
{3}
н/о н/о +18.8 +11.2 61 +21 +21 комфорт 1026.6 962.5
14 14.10 СВ 2
{3}
н/о н/о +18.9 +11.4 62 +20 +20 тепло 1026.3 962.2
15 14.10 СВ 2
{4}
н/о н/о +19.4 +10.7 57 +21 +21 комфорт 1026.0 962.1
16 14.10 СВ 1
{3}
н/о н/о +18.1 +11.9 67 +19 +19 тепло 1026.2 962.0
17 14.10 СВ 2
{3}
н/о н/о +15.2 +11.7 80 +15 +15 тепло 1027.3 962.3
18 14.10 СВ 2
{4}
н/о ясно +14.2 +11.5 84 +14 +14 тепло 1027.8 962.6 +19.7
19 14.10 В 1
{3}
н/о н/о +13.4 +11.0 85 +14 +14 тепло 1028.2 962.8
20 14.10 штиль 0
{1}
н/о н/о +13.1 +11.3 89 +13 +13 тепло 1028.3 962.8
21 14.10 СВ 1
{3}
н/о н/о +12.4 +10.9 91 +12 +12 тепло 1028.6 962.9
22 14.10 штиль 0
{1}
н/о н/о +12.1 +10.7 91 +11 +11 тепло 1028.5 962.8
23 14.10 штиль 0
{1}
н/о н/о +11.6 +10.2 91 +11 +11 тепло 1028.8 962.9
00 15.10 ЮЗ 1
{3}
н/о н/о +11.5 +10.4 93 +12 +12 тепло 1028.8 962.9
01 15.10 штиль 0
{1}
н/о н/о +11.0 +10.0 94 +10 +10 тепло 1028.8 962.8
02 15.10 СВ 1
{1}
н/о н/о +10.7 +9.8 94 +11 +11 тепло 1028.8 962.7
03 15.10 штиль 0
{1}
н/о н/о +10.7 +9.8 94 +10 +10 по сезону 1028.7 962.6
04 15.10 штиль 0
{1}
н/о н/о +10.3 +9.5 95 +9 +9 тепло 1028.9 962.7
05 15.10 штиль 0
{1}
н/о н/о +10.0 +9.1 94 +9 +9 тепло 1029.0 962.7
06 15.10 СВ 1 н/о н/о +9.5 +8.9 96 +10 +10 тепло 1029.1 962.7 +9.6
07 15.10 штиль 0
{1}
н/о н/о +9.8 +9.5 98 +9 +9 по сезону 1029.3 963.0
08 15.10 ЮЗ 1
{1}
н/о н/о +10.6 +10.5 99 +11 +11 тепло 1029.6 963.4
09 15.10 ЮЗ 1
{1}
н/о н/о +12.0 +11.5 97 +13 +13 тепло 1029.3 963.5
10 15.10 ЮЗ 1
{2}
н/о н/о +14.0 +11.5 85 +14 +14 тепло 1028.7 963.4
11 15.10 ЮЗ 2
{3}
н/о н/о +16.8 +11.2 70 +17 +17 тепло 1027.4 962.8
12 15.10 ЮЗ 1
{3}
н/о н/о +18.4 +10.4 60 +20 +20 тепло 1026.5 962.3
13 15.10 Ю 2
{3}
н/о н/о +19.8 +10.8 56 +22 +22 комфорт 1025.6 961.8
14 15.10 ЮЗ 2
{3}
н/о н/о +20.2 +10.6 54 +23 +23 комфорт 1025.2 961.5
15 15.10 Ю 1
{3}
н/о н/о +20.2 +11.2 56 +23 +23 комфорт 1024.9 961.2
16 15.10 Ю 1
{2}
н/о н/о +19.4 +11.9 62 +22 +22 комфорт 1025.0 961.1
17 15.10 ЮВ 1
{1}
н/о н/о +15.9 +11.9 77 +17 +17 тепло 1025.9 961.2
18 15.10 Ю 1
{3}
н/о ясно +15.2 +11.2 77 +16 +16 тепло 1026.6 961.7 +20.9
19 15.10 СЗ 1
{2}
н/о н/о +13.7 +11.2 85 +15 +15 тепло 1027.1 961.8
20 15.10 Ю 1
{2}
н/о н/о +14.6 +10.0 74 +15 +15 тепло 1027.1 962.0
21 15.10 штиль 0
{2}
н/о н/о +14.4 +9.3 71 +14 +14 тепло 1027.4 962.3
22 15.10 СЗ 1
{1}
н/о н/о +12.6 +9.5 81 +13 +13 тепло 1028.2 962.6
23 15.10 СЗ 1
{1}
н/о н/о +11.9 +8.5 80 +13 +13 тепло 1028.4 962.6
00 16.10 ЮВ 1
{2}
н/о н/о +12.0 +8.9 81 +13 +13 тепло 1028.6 962.8
01 16.10 ЮВ 1
{2}
н/о н/о +11.4 +9.4 88 +12 +12 тепло 1028.7 962.8
02 16.10 Ю 1
{2}
н/о н/о +11.3 +9.5 89 +12 +12 тепло 1028.4 962.5
03 16.10 ЮВ 1
{2}
н/о н/о +11.1 +9.2 88 +12 +12 тепло 1028.3 962.3
04 16.10 Ю 1
{2}
н/о н/о +10.2 +8.3 88 +11 +11 тепло 1028.3 962.1
05 16.10 штиль 0
{1}
н/о н/о +10.2 +8.5 89 +9 +9 тепло 1028.4 962.2
06 16.10 СЗ 1 н/о н/о +9.6 +7.7 88 +10 +10 тепло 1028.3 962.0 +9.8
07 16.10 штиль 0
{2}
н/о н/о +10.8 +8.5 86 +10 +10 тепло 1028.4 962.4
08 16.10 ЮЗ 1
{1}
н/о н/о +12.8 +9.5 80 +14 +14 тепло 1028.2 962.6
09 16.10 ЮЗ 1
{2}
н/о н/о +14.6 +9.0 69 +16 +16 тепло 1027.8 962.7
10 16.10 ЮЗ 1
{2}
н/о н/о +17.6 +10.1 61 +19 +19 тепло 1026.9 962.5
11 16.10 ЮЗ 2
{3}
н/о н/о +19.0 +8.7 51 +20 +20 тепло 1026.3 962.3
12 16.10 З 2
{4}
н/о ясно +20.2 +9.6 50 +22 +29 комфорт 1025.5 961.8
13 16.10 СЗ 1
{3}
н/о н/о +21.6 +9.7 47 +23 +23 комфорт 1024.8 961.4
14 16.10 З 2
{3}
н/о н/о +22.5 +8.6 41 +24 +24 комфорт 1024.2 961.1
15 16.10 Ю 2
{3}
н/о н/о +21.6 +8.6 43 +23 +23 комфорт 1024.2 960.9
16 16.10 ЮЗ 1
{2}
н/о н/о +20.1 +10.2 53 +23 +23 комфорт 1024.6 960.9
17 16.10 В 1
{2}
н/о н/о +16.3 +10.9 70 +18 +18 тепло 1025.7 961.1
18 16.10 С 1
{3}
н/о ясно +15.1 +11.0 76 +16 +16 тепло 1026.1 961.2 +22.5
19 16.10 штиль 0
{1}
н/о н/о +14.0 +10.6 80 +14 +14 тепло 1026.3 961.1
20 16.10 СЗ 1
{2}
н/о н/о +13.6 +10.2 80 +15 +15 тепло 1026.4 961.1
21 16.10 В 1
{2}
н/о н/о +13.6 +9.8 78 +15 +15 тепло 1026.6 961.3
22 16.10 Ю 1
{2}
н/о н/о +12.2 +8.9 80 +13 +13 тепло 1026.8 961.2
23 16.10 штиль 0
{2}
н/о н/о +11.6 +8.8 83 +11 +11 тепло 1027.0 961.2
00 17.10 штиль 0
{2}
н/о н/о +11.3 +8.6 83 +11 +11 тепло 1026.9 961.1
01 17.10 СВ 1
{2}
н/о н/о +10.4 +8.0 85 +10 +10 тепло 1027.0 961.0
02 17.10 В 1
{2}
н/о н/о +10.1 +8.1 87 +11 +11 тепло 1026.9 960.8
03 17.10 штиль 0
{2}
н/о н/о +10.2 +8.2 87 +9 +9 по сезону 1026.8 960.7
04 17.10 штиль 0
{1}
н/о н/о +9.9 +8.1 89 +9 +9 тепло 1026.6 960.5
05 17.10 Ю 1
{2}
н/о н/о +10.4 +8.3 87 +10 +10 тепло 1026.3 960.3
06 17.10 штиль 0 н/о н/о +10.1 +8.4 89 +9 +9 по сезону 1026.4 960.3 +9.6
07 17.10 штиль 0
{1}
н/о н/о +10.6 +9.1 90 +10 +10 тепло 1026.5 960.5
08 17.10 З 1
{2}
н/о н/о +12.3 +8.8 79 +13 +13 тепло 1025.9 960.4
09 17.10 Ю 1
{2}
н/о н/о +14.2 +8.4 68 +15 +15 тепло 1025.0 960.0
10 17.10 Ю 2
{3}
н/о н/о +17.2 +8.8 58 +18 +18 тепло 1023.9 959.6
11 17.10 Ю 2
{3}
н/о н/о +18.7 +8.2 50 +20 +20 тепло 1022.7 958.8
12 17.10 ЮЗ 2
{3}
н/о 1/0
[]
+19.9 +8.5 48 +22 +28 комфорт 1021.3 957.8
13 17.10 ЮЗ 1
{3}
н/о н/о +20.4 +8.1 45 +23 +23 комфорт 1020.3 956.9
14 17.10 СВ 1
{3}
н/о н/о +21.6 +7.2 39 +22 +22 комфорт 1019.2 956.2
15 17.10 СВ 2
{3}
н/о н/о +21.2 +6.4 38 +22 +22 комфорт 1018.9 955.8
16 17.10 СВ 1
{2}
н/о н/о +19.2 +8.8 51 +21 +21 комфорт 1019.1 955.6
17 17.10 СЗ 1
{1}
н/о н/о +15.4 +9.9 70 +17 +17 тепло 1020.1 955.6

 

Местоположение метеостанции Zurich (Швейцария): широта 47.38 долгота 8.57 высота над уровнем моря 569 м.

В архиве по умолчанию представлена погода в Zurich за последнюю неделю. Архивные данные за месяц целиком и за предыдущие месяцы, начиная с января 2011 года, Вы можете получить, выбрав интересующий диапазон дат из раскрывающегося списка и нажав кнопку "Ввод!".

Внимание! Время в таблицах - всемирное. Для получения местного времени необходимо прибавить поправку, которая в Zurich равна 1 ч.

Смотрите также архив погоды в соседних городах и на ближайших метеорологических станциях:

Погода в Reckenholz (Швейцария) (7 км)
Погода в Zurich-Kloten (Швейцария) (12 км)
Погода в Laegern (Швейцария) (17 км)
Погода в Wadenswil (Швейцария) (20 км)
Погода в Cham (Швейцария) (23 км)
Погода в Taenikon (Швейцария) (27 км)
Погода в Hoernki (Швейцария) (29 км)
Погода в Psi Wuerenlingen (Швейцария) (31 км)
Погода в Mosen (Швейцария) (31 км)
Погода в Einsiedeln (Швейцария) (31 км)

Пояснения к столбцам:

Ветер - указаны скорость ветра в м/с - средняя за 10 мин, порывы в срок и между сроками (в фигурных скобках) и направление, откуда дует ветер: С - северный, СВ - северо-восточный, В - восточный, ЮВ - юго-восточный, Ю - южный, ЮЗ - юго-западный, З - западный, СЗ - северо-западный.
Видимость - горизонтальная дальность видимости в метрах или километрах. При видимости от 1 до 10 км при отсутствии осадков обычно наблюдается дымка, при ухудшении видимости до 1 км и менее - туман. В сухую погоду видимость может ухудшаться дымом, пылью или мглою.
Явления - указаны атмосферные явления, наблюдавшиеся в срок или в последний час перед сроком; фигурными скобками обозначены явления, наблюдавшиеся между сроками (за 1-3 часа до срока); квадратными скобками обозначены град или гололедные отложения с указанием их диаметра в мм.
Облачность - указаны через наклонную черту общая и нижняя облачность в баллах и высота нижней границы облаков в метрах; квадратными скобками обозначены формы облаков: Ci - перистые, Cs - перисто-слоистые, Cc - перисто-кучевые, Ac - высококучевые, As - высокослоистые, Sc - слоисто-кучевые, Ns - слоисто-дождевые, Cu - кучевые, Cb - кучево-дождевые. Подробнее классификацию облаков см. в Атласе облаков (PDF).
T - Температура воздуха - температура, измеренная на высоте 2 м над землей.
Td - Температура точки росы - температура, при понижении до которой содержащийся в воздухе водяной пар достигнет насыщения.
f - Относительная влажность воздуха - влажноcть воздуха, измеренная на высоте 2 м над землей.
Te - Эффективная температура - температура, которую ощущает одетый по сезону человек в тени. Характеристика душности погоды. При расчете учитывается влияние влажности воздуха и скорости ветра на теплоощущения человека.
Tes - Эффективная температура на солнце - температура, которую ощущает человек, с поправкой на солнечный нагрев. Характеристика знойности погоды. Зависит от высоты солнца над горизонтом, облачности и скорости ветра. Ночью, в пасмурную погоду, а также при ветре 12 м/с и более поправка равна нулю.
P - Атмосферное давление - приведенное к уровню моря атмосферное давление.
Po - Атмосферное давление - измеренное на уровне метеостанции атмосферное давление.
Tmin - Минимальная температура - минимум температуры воздуха на высоте 2 м над землей.
Tmax - Максимальная температура - максимум температуры воздуха на высоте 2 м над землей.
R - Количество осадков - Количество выпавших осадков за период времени, мм. При наведении курсора мыши на число - период времени, за который выпало указанное количество осадков.
R24 - Количество осадков - Количество выпавших осадков за 24 часа, мм.
S - Снежный покров - Высота снежного покрова, см. При наведении курсора мыши на число - состояние снежного покрова и степень покрытия местности в баллах.